Time,TemperatureF,DewpointF,PressureIn,WindDirection,WindDirectionDegrees,WindSpeedMPH,WindSpeedGustMPH,Humidity,HourlyPrecipIn,Conditions,Clouds,dailyrainin,SoftwareType,DateUTC
2013-04-02 00:22:00,31.0,-99.9,-100.00,North,-999,-999.0,-999.0,-999,0.00,,,-99.99,,2013-04-02 06:22:00,
2013-04-02 00:32:00,31.0,-99.9,-100.00,North,-999,-999.0,-999.0,-999,0.00,,,-99.99,,2013-04-02 06:32:00,
2013-04-02 00:43:00,31.0,-99.9,-100.00,North,-999,-999.0,-999.0,-999,0.00,,,-99.99,,2013-04-02 06:43:00,
2013-04-02 01:22:00,29.0,-99.9,-100.00,North,-999,-999.0,-999.0,-999,0.00,,,0.01,,2013-04-02 07:22:00,
2013-04-02 01:32:00,29.0,-99.9,-100.00,North,-999,-999.0,-999.0,-999,0.00,,,0.01,,2013-04-02 07:32:00,
2013-04-02 01:43:00,29.0,-99.9,-100.00,North,-999,-999.0,-999.0,-999,0.00,,,0.01,,2013-04-02 07:43:00,
2013-04-02 02:23:00,26.0,-99.9,-100.00,North,-999,-999.0,-999.0,-999,0.00,,,-99.99,,2013-04-02 08:23:00,
2013-04-02 02:33:00,26.0,-99.9,-100.00,North,-999,-999.0,-999.0,-999,0.00,,,-99.99,,2013-04-02 08:33:00,
2013-04-02 02:43:00,26.0,-99.9,-100.00,North,-999,-999.0,-999.0,-999,0.00,,,-99.99,,2013-04-02 08:43:00,
2013-04-02 03:23:00,26.0,-99.9,-100.00,North,-999,-999.0,-999.0,-999,0.01,,,0.02,,2013-04-02 09:23:00,
2013-04-02 03:33:00,26.0,-99.9,-100.00,North,-999,-999.0,-999.0,-999,0.01,,,0.02,,2013-04-02 09:33:00,
2013-04-02 03:43:00,26.0,-99.9,-100.00,North,-999,-999.0,-999.0,-999,0.01,,,0.02,,2013-04-02 09:43:00,
2013-04-02 04:24:00,24.0,-99.9,-100.00,North,-999,-999.0,-999.0,-999,-99.99,,,0.01,,2013-04-02 10:24:00,
2013-04-02 04:33:00,24.0,-99.9,-100.00,North,-999,-999.0,-999.0,-999,-99.99,,,0.01,,2013-04-02 10:33:00,
2013-04-02 04:43:00,24.0,-99.9,-100.00,North,-999,-999.0,-999.0,-999,-99.99,,,0.01,,2013-04-02 10:43:00,
2013-04-02 05:23:00,22.0,-99.9,-100.00,North,-999,-999.0,-999.0,-999,0.00,,,0.00,,2013-04-02 11:23:00,
2013-04-02 05:33:00,22.0,-99.9,-100.00,North,-999,-999.0,-999.0,-999,0.00,,,0.00,,2013-04-02 11:33:00,
2013-04-02 05:43:00,22.0,-99.9,-100.00,North,-999,-999.0,-999.0,-999,0.00,,,0.00,,2013-04-02 11:43:00,
2013-04-02 06:23:00,21.0,-99.9,-100.00,North,-999,-999.0,-999.0,-999,0.00,,,0.01,,2013-04-02 12:23:00,
2013-04-02 06:33:00,21.0,-99.9,-100.00,North,-999,-999.0,-999.0,-999,0.00,,,0.01,,2013-04-02 12:33:00,
2013-04-02 06:43:00,21.0,-99.9,-100.00,North,-999,-999.0,-999.0,-999,0.00,,,0.01,,2013-04-02 12:43:00,
2013-04-02 07:23:00,20.0,-99.9,-100.00,North,-999,-999.0,-999.0,-999,0.01,,,0.01,,2013-04-02 13:23:00,
2013-04-02 07:33:00,20.0,-99.9,-100.00,North,-999,-999.0,-999.0,-999,0.01,,,0.01,,2013-04-02 13:33:00,
2013-04-02 07:43:00,20.0,-99.9,-100.00,North,-999,-999.0,-999.0,-999,0.01,,,0.01,,2013-04-02 13:43:00,
2013-04-02 08:23:00,19.0,-99.9,-100.00,North,-999,-999.0,-999.0,-999,0.02,,,0.01,,2013-04-02 14:23:00,
2013-04-02 08:33:00,19.0,-99.9,-100.00,North,-999,-999.0,-999.0,-999,0.02,,,0.01,,2013-04-02 14:33:00,
2013-04-02 08:43:00,19.0,-99.9,-100.00,North,-999,-999.0,-999.0,-999,0.02,,,0.01,,2013-04-02 14:43:00,
2013-04-02 09:23:00,23.0,-99.9,-100.00,North,-999,-999.0,-999.0,-999,0.00,,,0.01,,2013-04-02 15:23:00,
2013-04-02 09:34:00,23.0,-99.9,-100.00,North,-999,-999.0,-999.0,-999,0.00,,,0.01,,2013-04-02 15:34:00,
2013-04-02 09:43:00,23.0,-99.9,-100.00,North,-999,-999.0,-999.0,-999,0.00,,,0.01,,2013-04-02 15:43:00,
2013-04-02 09:45:00,30.0,-99.9,-100.00,North,-999,-999.0,-999.0,-999,0.00,,,0.01,,2013-04-02 15:45:00,
2013-04-02 10:25:00,30.0,-99.9,-100.00,North,-999,-999.0,-999.0,-999,0.00,,,0.01,,2013-04-02 16:25:00,
2013-04-02 10:40:00,30.0,-99.9,-100.00,North,-999,-999.0,-999.0,-999,0.00,,,0.01,,2013-04-02 16:40:00,
2013-04-02 11:25:00,38.0,-99.9,-100.00,North,-999,-999.0,-999.0,-999,-99.99,,,-99.99,,2013-04-02 17:25:00,
2013-04-02 11:44:00,38.0,-99.9,-100.00,North,-999,-999.0,-999.0,-999,-99.99,,,-99.99,,2013-04-02 17:44:00,
2013-04-02 12:24:00,50.0,-99.9,-100.00,North,-999,-999.0,-999.0,-999,-99.99,,,0.01,,2013-04-02 18:24:00,
2013-04-02 12:43:00,50.0,-99.9,-100.00,North,-999,-999.0,-999.0,-999,-99.99,,,0.01,,2013-04-02 18:43:00,
2013-04-02 12:45:00,57.0,-99.9,-100.00,North,-999,-999.0,-999.0,-999,0.00,,,0.01,,2013-04-02 18:45:00,
2013-04-02 13:23:00,57.0,-99.9,-100.00,North,-999,-999.0,-999.0,-999,0.00,,,0.01,,2013-04-02 19:23:00,
2013-04-02 13:35:00,57.0,-99.9,-100.00,North,-999,-999.0,-999.0,-999,0.00,,,0.01,,2013-04-02 19:35:00,
2013-04-02 13:45:00,62.0,-99.9,-100.00,North,-999,-999.0,-999.0,-999,0.00,,,0.01,,2013-04-02 19:45:00,
2013-04-02 14:23:00,62.0,-99.9,-100.00,North,-999,-999.0,-999.0,-999,0.00,,,0.01,,2013-04-02 20:23:00,
2013-04-02 14:34:00,62.0,-99.9,-100.00,North,-999,-999.0,-999.0,-999,0.00,,,0.01,,2013-04-02 20:34:00,
2013-04-02 15:24:00,65.0,-99.9,-100.00,North,-999,-999.0,-999.0,-999,0.00,,,0.01,,2013-04-02 21:24:00,
2013-04-02 16:25:00,66.0,-99.9,-100.00,North,-999,-999.0,-999.0,-999,-99.99,,,0.01,,2013-04-02 22:25:00,
2013-04-02 17:45:00,58.0,-99.9,-100.00,North,-999,-999.0,-999.0,-999,-99.99,,,0.01,,2013-04-02 23:45:00,
2013-04-02 18:27:00,58.0,-99.9,-100.00,North,-999,-999.0,-999.0,-999,-99.99,,,0.01,,2013-04-03 00:27:00,
2013-04-02 18:34:00,58.0,-99.9,-100.00,North,-999,-999.0,-999.0,-999,-99.99,,,0.01,,2013-04-03 00:34:00,
2013-04-02 19:23:00,50.0,-99.9,-100.00,North,-999,-999.0,-999.0,-999,0.00,,,0.01,,2013-04-03 01:23:00,
2013-04-02 19:34:00,50.0,-99.9,-100.00,North,-999,-999.0,-999.0,-999,0.00,,,0.01,,2013-04-03 01:34:00,
2013-04-02 19:43:00,50.0,-99.9,-100.00,North,-999,-999.0,-999.0,-999,0.00,,,0.01,,2013-04-03 01:43:00,
2013-04-02 19:45:00,42.0,-99.9,-100.00,North,-999,-999.0,-999.0,-999,0.00,,,0.01,,2013-04-03 01:45:00,
2013-04-02 20:25:00,42.0,-99.9,-100.00,North,-999,-999.0,-999.0,-999,0.00,,,0.01,,2013-04-03 02:25:00,
2013-04-02 20:35:00,42.0,-99.9,-100.00,North,-999,-999.0,-999.0,-999,0.00,,,0.01,,2013-04-03 02:35:00,
2013-04-02 21:23:00,34.0,-99.9,-100.00,North,-999,-999.0,-999.0,-999,0.00,,,0.01,,2013-04-03 03:23:00,
2013-04-02 21:38:00,34.0,-99.9,-100.00,North,-999,-999.0,-999.0,-999,0.00,,,0.01,,2013-04-03 03:38:00,
2013-04-02 21:44:00,34.0,-99.9,-100.00,North,-999,-999.0,-999.0,-999,0.00,,,0.01,,2013-04-03 03:44:00,
2013-04-02 22:23:00,32.0,-99.9,-100.00,North,-999,-999.0,-999.0,-999,0.00,,,0.03,,2013-04-03 04:23:00,
2013-04-02 22:33:00,32.0,-99.9,-100.00,North,-999,-999.0,-999.0,-999,0.00,,,0.03,,2013-04-03 04:33:00,
2013-04-02 22:43:00,32.0,-99.9,-100.00,North,-999,-999.0,-999.0,-999,0.00,,,0.03,,2013-04-03 04:43:00,
2013-04-02 23:23:00,30.0,-99.9,-100.00,North,-999,-999.0,-999.0,-999,0.00,,,0.03,,2013-04-03 05:23:00,
2013-04-02 23:33:00,30.0,-99.9,-100.00,North,-999,-999.0,-999.0,-999,0.00,,,0.03,,2013-04-03 05:33:00,
2013-04-02 23:42:00,30.0,-99.9,-100.00,North,-999,-999.0,-999.0,-999,0.00,,,0.03,,2013-04-03 05:42:00,